Location: Bretea Mure?an?
(45.9333°N, 22.7167°E)
Time: 16:23:53
(UTC+00:00)

Daily predictions for brighter satellites

Satellite Brightness Start Highest point End
(mag) Time Altitude Azimuth Time Altitude Azimuth Time Altitude Azimuth
H-2A R/B 3.9 15:53:17 10° SSW 15:58:05 38° W 16:03:02 10° NNW
ARGOS 3.6 15:55:36 10° S 16:00:55 71° WSW 16:06:19 10° NNW
Radarsat Rocket 4.1 15:58:04 10° SSE 16:03:56 63° ENE 16:10:26 10° NNW
Cosmos 2369 3.7 16:00:01 10° SSW 16:05:41 86° ESE 16:11:24 10° NNE
Lacrosse 5 3.6 16:03:46 10° SSE 16:06:55 17° ESE 16:10:04 10° E
Cosmos 1655 Rocket 4.2 16:01:06 10° N 16:07:14 52° ENE 16:13:16 10° SSE
CZ-2D R/B 4.4 16:03:39 10° S 16:07:17 47° W 16:10:57 10° NNW
Cosmos 1140 Rocket 3.7 16:04:22 10° S 16:09:22 51° ESE 16:14:22 10° NNE
Cosmos 1867 4.2 16:04:27 10° NW 16:09:52 63° WSW 16:15:13 10° SSE
Cosmos 1980 Rocket 2.3 16:04:15 10° SSW 16:09:55 89° NW 16:15:38 10° NNE
NOAA 6 4.0 16:06:15 10° SSE 16:11:22 74° ENE 16:16:33 10° N
ATLAS 5 CENTAUR R/B 3.6 16:10:21 10° WNW 16:12:52 16° NNW 16:15:37 10° NNE
USA 281 4.3 16:07:20 10° NNE 16:13:29 45° NW 16:19:37 10° SW
BlueWalker 3 2.4 16:10:07 10° WSW 16:13:55 54° NNW 16:17:45 10° NE
SMAP 4.0 16:11:08 10° S 16:15:41 55° W 16:20:17 10° NNW
Cosmos 1825 4.0 16:14:55 10° ESE 16:16:33 13° E 16:18:05 10° ENE
Cosmos 1697 Rocket 3.8 16:11:23 10° SW 16:16:46 43° NW 16:22:09 10° NNE
Cosmos 1408 3.2 16:14:51 10° SSE 16:17:50 30° E 16:20:52 10° NNE
COSMO-SKYMED 1 2.9 16:15:26 10° NNE 16:19:38 46° E 16:23:48 10° S
SL-08 R/B 3.5 16:15:06 10° NNE 16:20:04 87° WNW 16:25:01 10° SSW
Cosmos 2228 3.4 16:19:20 10° N 16:23:19 40° ENE 16:27:18 10° SSE
Cosmos 2263 Rocket 2.2 16:20:41 10° NNW 16:26:17 85° WSW 16:31:51 10° SSE
NOSS 2-1 (C) 4.1 16:28:44 10° NW 16:33:09 79° SW 16:39:27 10° SSE
Cosmos 2266 Rocket 4.0 16:27:33 10° N 16:33:55 89° WSW 16:40:06 10° S
ADEOS 4.3 16:29:20 10° S 16:34:27 57° WSW 16:39:36 10° NNW
CZ-4 R/B 2.7 16:31:39 10° ESE 16:34:43 21° ENE 16:37:47 10° NNE
BREEZE-M DEB (TANK) 3.5 16:29:49 10° WNW 16:36:10 48° SW 16:38:52 10° SE
Cosmos 724 4.3 16:31:05 10° SSW 16:36:56 71° ESE 16:42:59 10° NE
Cosmos 1544 Rocket 4.3 16:33:57 10° NNW 16:38:11 56° W 16:42:24 10° S
Okean O Rocket 2.7 16:36:59 10° ESE 16:40:27 23° ENE 16:43:56 10° NNE
PSLV R/B 4.1 16:37:16 10° SE 16:40:37 36° ENE 16:44:02 10° N
Cosmos 1328 3.7 16:37:08 10° S 16:41:05 68° E 16:45:02 10° NNE
NOSS 2-1 (D) 4.3 16:36:45 10° NW 16:41:10 69° SW 16:47:25 10° SSE
Cosmos 1726 Rocket 4.3 16:38:19 10° NNE 16:42:04 28° ENE 16:45:48 10° SE
Lacrosse 5 rocket 2.8 16:42:48 10° NNW 16:45:20 18° NNE 16:46:28 16° NE
Cosmos 1954 Rocket 4.4 16:43:03 10° S 16:47:56 40° ESE 16:52:39 11° NE
CZ-4B DEB 4.1 16:42:48 10° SSE 16:48:14 80° ENE 16:53:44 10° NNW
ISS -3.8 16:45:30 10° WNW 16:48:53 69° NNE 16:50:44 24° ESE
RESURS DK-1 3.8 16:46:56 10° N 16:49:55 19° NE 16:50:04 19° NE
COSMOS 2455 3.7 16:44:39 10° SW 16:50:28 50° NW 16:56:21 10° NNE
Cosmos 1184 Rocket 3.0 16:50:07 10° NNW 16:52:26 48° W 16:54:43 10° S
Cosmos 2251 Rocket 4.1 16:48:05 10° SW 16:53:22 60° WNW 16:58:42 10° NNE
CZ-4B R/B 3.3 16:49:42 10° SE 16:54:48 49° ENE 17:00:01 10° N
Timation 2 Rocket 4.2 16:50:58 10° NNW 16:57:10 76° WSW 17:03:37 10° SSE
Cosmos 1844 Rocket 3.1 16:52:45 10° NNW 16:58:01 40° NE 17:02:01 16° ESE
CZ-4C R/B 3.3 16:55:32 10° N 16:59:27 77° WNW 17:03:08 10° SSW
Cosmos 2227 4.3 16:54:11 10° NNW 17:00:00 85° WSW 17:05:45 10° SSE
Cosmos 1844 4.2 16:58:37 10° NNW 17:04:05 40° NE 17:07:25 21° ESE
Cosmos 1763 Rocket 3.4 16:59:33 10° NNW 17:04:42 59° ENE 17:09:45 10° SE
SL-08 ROCKET BODY 4.3 16:58:54 10° N 17:04:50 86° E 17:10:40 10° S
USA 290 4.2 17:02:15 10° WSW 17:05:06 28° WNW 17:07:58 10° N
Cosmos 2278 4.1 17:01:21 10° SW 17:06:59 66° WNW 17:12:40 10° NNE
SKYMED 2 4.2 17:03:29 10° N 17:07:46 56° WNW 17:12:00 10° SSW
ATLAS 2AS CENTAUR R/B 2.6 17:00:55 10° NW 17:07:59 70° NE 17:14:09 12° SE
Spot 1 4.5 17:09:17 34° E 17:09:29 34° E 17:13:12 10° SSE
Cosmos 2058 Rocket 3.8 17:07:22 10° N 17:10:55 32° ENE 17:10:55 32° ENE
Cosmos 2333 Rocket 3.2 17:08:33 10° SSE 17:12:27 24° ESE 17:12:27 24° ESE
IRIDIUM 103 4.5 17:08:11 10° N 17:13:15 47° E 17:18:16 10° SSE
Cosmos 841 Rocket 4.2 17:09:30 10° N 17:14:10 31° ENE 17:14:33 30° ENE
Cosmos 2360 Rocket 2.6 17:10:11 10° S 17:15:22 39° ESE 17:17:13 30° ENE
NOAA 15 4.5 17:11:51 10° SSE 17:17:05 82° ENE 17:22:23 10° NNW
Cosmos 2219 Rocket 4.1 17:14:03 10° SE 17:14:34 12° SE 17:14:34 12° SE
Nadezhda 2 Rocket 4.4 17:11:49 10° N 17:18:02 72° E 17:24:09 10° SSE
MINOTAUR 4 R/B 3.7 17:19:17 42° NNE 17:20:19 74° ESE 17:23:43 10° S
Cosmos 2278 Rocket 4.2 17:18:08 10° NNE 17:19:37 12° NNE 17:19:37 12° NNE
YAOGAN 1 2.5 17:17:06 10° SSE 17:21:24 85° WSW 17:25:45 10° NNW
Cosmos 2322 Rocket 2.1 17:19:44 10° SSW 17:25:18 68° ESE 17:28:44 24° NE
Cosmos 540 Rocket 3.4 17:22:45 10° NNW 17:27:53 61° ENE 17:30:16 30° SE
SL-4 R/B 2.7 17:24:43 10° WNW 17:27:58 33° N 17:28:15 33° N
Cosmos 676 Rocket 3.9 17:24:18 10° SSW 17:29:35 81° ESE 17:33:21 20° NNE
Cosmos 1892 3.5 17:27:00 10° SSW 17:30:37 50° WNW 17:34:17 10° N
IRIDIUM 106 4.2 17:26:23 10° N 17:31:37 69° E 17:36:48 10° S
ATLAS CENTAUR R/B 3.4 17:29:06 10° W 17:33:11 28° NW 17:36:11 15° N
Meteor 2-12 Rocket 4.3 17:30:40 10° N 17:36:47 90° W 17:42:51 10° S
SL-16 R/B 2.4 17:32:05 10° SSW 17:37:44 71° WNW 17:42:17 16° NNE
Cosmos 1461 3.1 17:35:11 10° SSW 17:38:57 56° SSE 17:38:57 56° SSE
Gblst 52 Del rocket 4.1 17:34:21 10° WSW 17:39:57 82° NNW 17:41:35 47° NE
In-Cosmos 22 Rocket 4.3 17:36:08 10° SSW 17:41:55 82° W 17:47:48 10° N
Meteor 1-27 4.1 17:38:31 10° N 17:44:22 80° ENE 17:50:05 10° SSE
CSL-04 Debris 4.1 17:47:37 57° E 17:47:54 58° ENE 17:53:13 10° N
Lacrosse 5 1.7 17:44:07 10° SW 17:49:13 84° SE 17:49:51 69° ENE
Cosmos 1825 3.1 17:47:43 10° SSW 17:51:16 46° WNW 17:52:39 30° NNW
BlueWalker 3 3.6 17:49:44 10° WNW 17:52:39 27° NNW 17:52:39 27° NNW
Cosmos 1892 Rocket 3.9 17:51:43 10° SSW 17:56:07 65° W 17:58:11 30° N
CSL-04 Rocket 3.8 17:57:55 54° NNE 17:57:55 54° NNE 18:02:21 10° N
Cosmos 1745 Rocket 3.8 18:01:09 10° N 18:07:28 84° E 18:10:13 36° SSE
CZ-4 R/B 2.7 18:05:28 10° SSW 18:09:22 40° W 18:13:14 10° NNW
Okean O Rocket 2.9 18:12:27 10° SSW 18:16:33 39° W 18:20:43 10° NNW
Cosmos 1386 Rocket 4.4 18:11:38 10° N 18:17:39 77° W 18:21:21 25° S
Lacrosse 5 rocket 3.8 18:21:13 10° NW 18:21:53 15° NW 18:21:53 15° NW
ISS -0.7 18:22:41 10° W 18:23:40 15° W 18:23:40 15° W
RESURS DK-1 4.4 18:24:09 10° NW 18:25:54 24° NW 18:25:54 24° NW
Cosmos 1844 Rocket 4.1 18:36:50 10° NW 18:41:48 34° WSW 18:43:47 26° SW
Cosmos 2333 Rocket 3.6 18:51:23 10° SW 18:54:33 33° WSW 18:54:33 33° WSW
ATLAS 2AS CENTAUR R/B 4.3 18:52:41 10° NW 18:58:16 27° WSW 19:01:41 18° SSW
Cosmos 2360 Rocket 3.5 18:54:10 10° WSW 18:59:04 36° WNW 18:59:04 36° WNW
Cosmos 2219 Rocket 4.4 18:55:31 10° SW 18:56:23 15° SW 18:56:23 15° SW
Cosmos 2278 Rocket 4.4 19:00:20 10° NNW 19:01:27 16° NNW 19:01:27 16° NNW
Cosmos 2322 Rocket 4.1 19:05:25 10° W 19:09:51 24° NW 19:10:36 23° NW
